Dewpoint
42 40 39 39 37 36 35 36 37 36 36 35 34 31 30 28 27 28 26 27 27 25
43 42 39 40 39 37 37 35 37 36 35 33 32 31 30 26 26 26 26 26 27 25
43 41 40 40 39 37 36 35 35 34 33 32 31 30 28 26 26 24 23 22 24 24
41 41 40 39 38 37 36 34 32 32 32 31 30 28 26 24 23 22 21 22 23 21
42 40 39 39 38 37 34 34 33 31 30 30 29 28 25 22 21 20 19 20 21 18
41 40 40 39 37 36 36 34 31 30 30 30 30 26 24 23 22 20 19 19 18 18
40 40 39 38 37 37 36 33 31 30 30 29 27 25 24 23 23 21 19 20 20 19
40 39 38 38 37 37 35 33 30 30 30 28 26 23 26 23 23 22 21 21 18 21
38 37 37 38 37 36 35 32 31 30 29 28 24 26 26 27 24 19 19 21 20 19
37 36 37 37 37 35 34 33 32 31 30 28 26 29 25 25 25 24 22 21 19 16
36 35 36 36 35 34 35 34 33 32 31 32 29 27 25 22 19 20 22 23 21 22
35 35 35 33 33 33 34 33 33 33 32 31 28 29 27 21 16 12 13 17 19 21
37 34 33 33 33 33 33 33 32 32 31 30 28 28 24 20 15 12 14 15 16 15
34 33 33 33 33 33 33 32 31 30 30 26 23 22 21 19 14 15 15 15 15 16
Lifted_Index
9 10 10 11 11 11 12 13 14 14 15 15 16 16 16 16 16 17 17 17 17 17
9 10 10 11 11 12 13 13 14 15 15 15 16 16 16 16 16 17 18 18 18 18
9 9 10 11 12 12 13 14 15 15 15 16 16 17 17 17 17 17 18 18 18 18
8 9 10 11 11 12 14 14 15 15 15 16 17 17 18 17 17 18 18 18 18 18
8 9 10 10 11 12 14 15 15 15 15 16 17 18 18 18 18 18 18 18 18 18
8 9 9 10 11 12 13 14 15 16 16 17 18 18 18 18 19 19 19 19 19 18
9 9 9 10 11 12 13 14 15 16 17 18 19 19 19 19 19 19 19 19 19 19
8 9 9 10 11 12 13 14 15 17 18 18 19 19 19 19 19 19 19 19 20 20
8 8 9 10 11 12 13 15 16 17 18 18 18 18 19 19 19 19 19 19 20 20
8 8 9 10 11 12 13 15 16 17 17 17 17 18 19 19 19 19 19 20 20 20
8 9 9 10 11 12 14 15 15 15 15 16 17 18 18 19 19 19 20 20 20 20
8 9 10 11 12 13 14 14 15 15 15 16 17 17 18 18 19 19 20 21 21 21
8 9 10 11 12 13 13 14 14 15 16 16 17 17 18 18 18 19 20 20 21 20
9 10 11 12 12 12 13 14 14 15 16 16 17 17 18 18 18 19 20 20 20 20